{"data":{"norad_id":51972,"epoch":"2026-05-25T02:08:44.680128Z","epoch_age_seconds":63751,"freshness":"FRESH","line1":"1 51972U 22025S   26145.08940602  .00000032  00000+0  13426-4 0  9996","line2":"2 51972  53.1559  41.7468 0001286  96.9028 263.2119 15.29355377232531","mean_motion":15.29355377,"eccentricity":0.0001286,"inclination_deg":53.1559,"raan_deg":41.7468,"arg_perigee_deg":96.9028,"mean_anomaly_deg":263.2119,"bstar":1.3426e-5,"rev_number":23253,"period_min":94.157317629126,"perigee_km":476.85645648699,"apogee_km":478.61978756837,"semimajor_km":6855.8751220277,"source":"CELESTRAK","updated_at":"2026-05-25T13:38:16.993946Z"}}